TRA93Y LOWS-EHAM

Flight info

Callsign TRA93Y
Flight time N/A
Altitude 38000
Route INROM DCT SIMBA Y700 NENUM DCT EPTEU L604 RODIS DCT GASKA DCT MASEK DCT MAPOX DCT NORKU
Aircraft B738/M-SDE2E3FGHIJ1RWXYZ/LB1

Departure

Time N/A
Airport Salzburg Airport (LOWS)

Arrival

Time 2026-04-30 13:39
Airport Amsterdam Airport Schiphol (EHAM)
Time Latitude Longitude Altitude Speed Heading
2026-04-30 13:02 50.97893 9.11708 38430 ft 430 kts 314°
2026-04-30 13:02 50.99780 9.08039 38422 ft 430 kts 314°
2026-04-30 13:02 51.03561 9.00672 38425 ft 430 kts 314°
2026-04-30 13:03 51.07335 8.93298 38424 ft 430 kts 314°
2026-04-30 13:03 51.11109 8.85904 38431 ft 430 kts 313°
2026-04-30 13:04 51.14971 8.78627 38426 ft 429 kts 317°
2026-04-30 13:04 51.19116 8.71815 38423 ft 428 kts 319°
2026-04-30 13:05 51.23302 8.65061 38420 ft 428 kts 319°
2026-04-30 13:06 51.29520 8.54876 38421 ft 429 kts 318°
2026-04-30 13:06 51.33672 8.48001 38411 ft 430 kts 318°
2026-04-30 13:07 51.37822 8.41102 38416 ft 431 kts 318°
2026-04-30 13:07 51.41973 8.34184 38414 ft 431 kts 317°
2026-04-30 13:08 51.46123 8.27248 38411 ft 431 kts 317°
2026-04-30 13:08 51.50273 8.20293 38415 ft 431 kts 317°
2026-04-30 13:09 51.54415 8.13333 38425 ft 431 kts 317°
2026-04-30 13:09 51.56484 8.09849 38307 ft 433 kts 317°
2026-04-30 13:09 51.58574 8.06327 37821 ft 435 kts 317°
2026-04-30 13:09 51.60651 8.02818 37274 ft 432 kts 317°
2026-04-30 13:10 51.62721 7.99315 36761 ft 430 kts 317°
2026-04-30 13:10 51.64770 7.95843 36362 ft 426 kts 317°
2026-04-30 13:10 51.66803 7.92392 35948 ft 423 kts 317°
2026-04-30 13:10 51.68136 7.90128 35673 ft 421 kts 317°
2026-04-30 13:11 51.70146 7.86710 35260 ft 418 kts 317°
2026-04-30 13:11 51.72139 7.83318 34856 ft 416 kts 317°
2026-04-30 13:11 51.74121 7.79940 34458 ft 413 kts 317°
2026-04-30 13:11 51.76091 7.76578 34014 ft 411 kts 317°
2026-04-30 13:12 51.78052 7.73228 33576 ft 409 kts 317°
2026-04-30 13:12 51.79997 7.69898 33173 ft 406 kts 316°
2026-04-30 13:12 51.81926 7.66593 32775 ft 403 kts 316°
2026-04-30 13:13 51.85742 7.60040 32007 ft 398 kts 316°
2026-04-30 13:13 51.87631 7.56790 31633 ft 395 kts 316°
2026-04-30 13:13 51.91378 7.50331 30881 ft 391 kts 316°
2026-04-30 13:14 51.93234 7.47124 30510 ft 389 kts 316°
2026-04-30 13:14 51.95080 7.43932 30081 ft 387 kts 316°
2026-04-30 13:14 51.98730 7.37605 29274 ft 381 kts 316°
2026-04-30 13:15 52.00536 7.34470 28885 ft 378 kts 316°
2026-04-30 13:15 52.04100 7.28272 28111 ft 373 kts 316°
2026-04-30 13:15 52.05865 7.25195 27732 ft 371 kts 316°
2026-04-30 13:16 52.07617 7.22138 27350 ft 368 kts 316°
2026-04-30 13:16 52.09355 7.19102 26972 ft 366 kts 316°
2026-04-30 13:16 52.11088 7.16070 26593 ft 364 kts 316°
2026-04-30 13:17 52.14519 7.10057 25857 ft 361 kts 316°
2026-04-30 13:17 52.16226 7.07061 25492 ft 360 kts 316°
2026-04-30 13:17 52.19596 7.01135 24771 ft 358 kts 316°
2026-04-30 13:18 52.21303 6.98128 24404 ft 357 kts 315°
2026-04-30 13:18 52.24478 6.91977 23667 ft 356 kts 311°
2026-04-30 13:18 52.26021 6.88834 23275 ft 354 kts 311°
2026-04-30 13:19 52.27555 6.85713 22901 ft 352 kts 311°
2026-04-30 13:19 52.29091 6.82608 22531 ft 350 kts 312°
2026-04-30 13:19 52.30621 6.79529 22171 ft 348 kts 312°
2026-04-30 13:19 52.32145 6.76463 21816 ft 346 kts 312°
2026-04-30 13:20 52.33657 6.73419 21462 ft 345 kts 312°
2026-04-30 13:20 52.35171 6.70372 21104 ft 344 kts 312°
2026-04-30 13:20 52.36676 6.67341 20754 ft 343 kts 312°
2026-04-30 13:20 52.38176 6.64314 20401 ft 342 kts 312°
2026-04-30 13:21 52.39669 6.61301 20054 ft 341 kts 312°
2026-04-30 13:21 52.41161 6.58284 19714 ft 340 kts 312°
2026-04-30 13:21 52.42614 6.55345 19299 ft 343 kts 312°
2026-04-30 13:22 52.45629 6.49125 18261 ft 353 kts 306°
2026-04-30 13:22 52.46710 6.45509 17853 ft 354 kts 290°
2026-04-30 13:22 52.47430 6.37557 17116 ft 352 kts 274°
2026-04-30 13:23 52.47599 6.33546 16518 ft 357 kts 274°
2026-04-30 13:23 52.47950 6.25334 15535 ft 361 kts 274°
2026-04-30 13:24 52.48334 6.17180 14797 ft 357 kts 275°
2026-04-30 13:24 52.48725 6.09109 14051 ft 353 kts 274°
2026-04-30 13:25 52.49107 6.01130 13268 ft 348 kts 274°
2026-04-30 13:25 52.49476 5.93274 12544 ft 343 kts 274°
2026-04-30 13:26 52.50012 5.81693 11487 ft 336 kts 273°
2026-04-30 13:26 52.50358 5.74094 10801 ft 332 kts 273°
2026-04-30 13:27 52.50696 5.66569 10203 ft 326 kts 272°
2026-04-30 13:28 52.51171 5.55814 9422 ft 307 kts 272°
2026-04-30 13:28 52.51470 5.48883 8794 ft 304 kts 272°
2026-04-30 13:28 52.51617 5.45432 8494 ft 303 kts 272°
2026-04-30 13:29 52.51906 5.38598 7886 ft 300 kts 271°
2026-04-30 13:29 52.52191 5.31798 7302 ft 297 kts 271°
2026-04-30 13:30 52.52605 5.21728 6404 ft 292 kts 271°
2026-04-30 13:31 52.52873 5.15107 5805 ft 289 kts 270°
2026-04-30 13:31 52.53262 5.05320 4937 ft 283 kts 270°
2026-04-30 13:32 52.53512 4.98902 4353 ft 280 kts 269°
2026-04-30 13:32 52.53757 4.92560 3811 ft 277 kts 269°
2026-04-30 13:33 52.53989 4.86303 3412 ft 269 kts 267°
2026-04-30 13:33 52.53190 4.80780 3228 ft 235 kts 246°
2026-04-30 13:34 52.52700 4.78291 3137 ft 223 kts 246°
2026-04-30 13:34 52.50661 4.72729 2819 ft 166 kts 189°
2026-04-30 13:35 52.49585 4.72496 2680 ft 150 kts 176°
2026-04-30 13:35 52.47544 4.72236 2286 ft 141 kts 175°
2026-04-30 13:36 52.45607 4.72046 1909 ft 140 kts 174°
2026-04-30 13:36 52.44636 4.71975 1783 ft 141 kts 175°
2026-04-30 13:36 52.42634 4.71766 1320 ft 143 kts 176°
2026-04-30 13:37 52.41657 4.71676 1160 ft 139 kts 175°
2026-04-30 13:37 52.39707 4.71504 767 ft 141 kts 175°
2026-04-30 13:38 52.37808 4.71341 376 ft 137 kts 176°
2026-04-30 13:38 52.36851 4.71248 199 ft 138 kts 176°
2026-04-30 13:38 52.35021 4.71095 -3 ft 112 kts 184°
2026-04-30 13:39 52.34048 4.71007 -4 ft 46 kts 182°
2026-04-30 13:39 52.33561 4.71230 -2 ft 31 kts 174°
2026-04-30 13:40 52.33351 4.71220 -2 ft 29 kts 183°
2026-04-30 13:40 52.33183 4.71332 -2 ft 27 kts 130°
2026-04-30 13:40 52.33064 4.71553 -2 ft 25 kts 131°
2026-04-30 13:40 52.32950 4.71763 -2 ft 23 kts 131°
2026-04-30 13:41 52.32846 4.71958 -2 ft 23 kts 122°
2026-04-30 13:41 52.32835 4.72213 -2 ft 24 kts 109°
2026-04-30 13:41 52.32727 4.72432 -2 ft 26 kts 131°
2026-04-30 13:41 52.32590 4.72650 -2 ft 28 kts 139°
2026-04-30 13:42 52.32436 4.72867 -2 ft 29 kts 139°
2026-04-30 13:42 52.32279 4.73088 -2 ft 30 kts 139°
2026-04-30 13:42 52.32056 4.73512 -2 ft 22 kts 98°
2026-04-30 13:43 52.32046 4.73775 -2 ft 24 kts 93°
2026-04-30 13:43 52.32037 4.74053 -3 ft 21 kts 93°
2026-04-30 13:43 52.31938 4.74190 -2 ft 22 kts 184°
2026-04-30 13:43 52.31773 4.74175 -2 ft 25 kts 183°
2026-04-30 13:44 52.31589 4.74159 -2 ft 28 kts 183°
2026-04-30 13:44 52.31429 4.74143 -2 ft 16 kts 180°
2026-04-30 13:44 52.31388 4.74295 -2 ft 18 kts 87°
2026-04-30 13:44 52.31395 4.74508 -2 ft 20 kts 87°
2026-04-30 13:45 52.31411 4.75007 -2 ft 24 kts 87°
2026-04-30 13:45 52.31420 4.75290 -2 ft 26 kts 87°
2026-04-30 13:45 52.31431 4.75589 -2 ft 27 kts 86°
2026-04-30 13:46 52.31443 4.75902 -2 ft 28 kts 86°
2026-04-30 13:46 52.31454 4.76207 -2 ft 26 kts 86°
2026-04-30 13:46 52.31464 4.76492 -2 ft 25 kts 87°
2026-04-30 13:46 52.31474 4.76780 -2 ft 26 kts 86°
2026-04-30 13:47 52.31483 4.77074 -2 ft 24 kts 87°
2026-04-30 13:47 52.31402 4.77307 -2 ft 25 kts 131°
2026-04-30 13:47 52.31271 4.77501 -2 ft 26 kts 166°
2026-04-30 13:47 52.31081 4.77491 -2 ft 29 kts 183°
2026-04-30 13:48 52.30898 4.77474 -2 ft 16 kts 183°
2026-04-30 13:48 52.30830 4.77428 -2 ft 8 kts 251°
2026-04-30 13:48 52.30839 4.77331 -2 ft 11 kts 276°
2026-04-30 13:48 52.30844 4.77187 -2 ft 9 kts 274°
2026-04-30 13:49 52.30853 4.77114 -2 ft 5 kts 313°
2026-04-30 13:49 52.30879 4.77110 -2 ft 6 kts
2026-04-30 13:49 52.30900 4.77112 -2 ft 1 kts
2026-04-30 13:49 52.30902 4.77112 -2 ft 0 kts